Location: Windsor
(43.2292°N, 89.3015°W)
Time: 17:58:43
(UTC+00:00)

AO-7 - Pass Details

Date: 03 July 2022
Orbit: 1440 x 1458 km, 101.9° (Epoch: 09 August)

Event Time Altitude Azimuth Distance (km) Brightness Sun altitude
Rises 09:21:06 0° 26° (NNE) 4,560 ? -9.5°
Reaches altitude 10° 09:24:23 10° 36° (NE) 3,580 ? -9.1°
Maximum altitude 09:31:32 31° 96° (E) 2,345 ? -8.1°
Drops below altitude 10° 09:38:38 10° 155° (SSE) 3,572 ? -7.2°
Sets 09:41:52 0° 165° (SSE) 4,548 ? -6.7°
